Year,Month,Day,Hour,Minute,Value (Times are PST for temperature in C)
2017,03,30,00,00,7.30
2017,03,30,00,01,7.30
2017,03,30,00,02,7.30
2017,03,30,00,03,7.30
2017,03,30,00,04,7.20
2017,03,30,00,05,7.20
2017,03,30,00,06,7.20
2017,03,30,00,07,7.20
2017,03,30,00,08,7.20
2017,03,30,00,09,7.20
2017,03,30,00,10,7.20
2017,03,30,00,11,7.20
2017,03,30,00,12,7.20
2017,03,30,00,13,7.20
2017,03,30,00,14,7.20
2017,03,30,00,15,7.20
2017,03,30,00,16,7.20
2017,03,30,00,17,7.20
2017,03,30,00,18,7.20
2017,03,30,00,19,7.30
2017,03,30,00,20,7.30
2017,03,30,00,21,7.30
2017,03,30,00,22,7.30
2017,03,30,00,23,7.30
2017,03,30,00,24,7.30
2017,03,30,00,25,7.30
2017,03,30,00,26,7.30
2017,03,30,00,27,7.30
2017,03,30,00,28,7.30
2017,03,30,00,29,7.30
2017,03,30,00,30,7.30
2017,03,30,00,31,7.40
2017,03,30,00,32,7.40
2017,03,30,00,33,7.40
2017,03,30,00,34,7.40
2017,03,30,00,35,7.40
2017,03,30,00,36,7.40
2017,03,30,00,37,7.40
2017,03,30,00,38,7.40
2017,03,30,00,39,7.40
2017,03,30,00,40,7.40
2017,03,30,00,41,7.40
2017,03,30,00,42,7.30
2017,03,30,00,43,7.30
2017,03,30,00,44,7.30
2017,03,30,00,45,7.30
2017,03,30,00,46,7.30
2017,03,30,00,47,7.30
2017,03,30,00,48,7.30
2017,03,30,00,49,7.30
2017,03,30,00,50,7.30
2017,03,30,00,51,7.20
2017,03,30,00,52,7.20
2017,03,30,00,53,7.20
2017,03,30,00,54,7.20
2017,03,30,00,55,7.20
2017,03,30,00,56,7.20
2017,03,30,00,57,7.20
2017,03,30,00,58,7.20
2017,03,30,00,59,7.20
2017,03,30,01,00,7.20
2017,03,30,01,01,7.20
2017,03,30,01,02,7.20
2017,03,30,01,03,7.20
2017,03,30,01,04,7.20
2017,03,30,01,05,7.20
2017,03,30,01,06,7.20
2017,03,30,01,07,7.20
2017,03,30,01,08,7.20
2017,03,30,01,09,7.20
2017,03,30,01,10,7.20
2017,03,30,01,11,7.10
2017,03,30,01,12,7.10
2017,03,30,01,13,7.20
2017,03,30,01,14,7.20
2017,03,30,01,15,7.20
2017,03,30,01,16,7.20
2017,03,30,01,17,7.10
2017,03,30,01,18,7.10
2017,03,30,01,19,7.10
2017,03,30,01,20,7.10
2017,03,30,01,21,7.10
2017,03,30,01,22,7.20
2017,03,30,01,23,7.20
2017,03,30,01,24,7.20
2017,03,30,01,25,7.10
2017,03,30,01,26,7.10
2017,03,30,01,27,7.10
2017,03,30,01,28,7.10
2017,03,30,01,29,7.20
2017,03,30,01,30,7.20
2017,03,30,01,31,7.10
2017,03,30,01,32,7.10
2017,03,30,01,33,7.10
2017,03,30,01,34,7.10
2017,03,30,01,35,7.00
2017,03,30,01,36,7.00
2017,03,30,01,37,7.00
2017,03,30,01,38,7.00
2017,03,30,01,39,7.00
2017,03,30,01,40,6.90
2017,03,30,01,41,6.90
2017,03,30,01,42,6.90
2017,03,30,01,43,6.90
2017,03,30,01,44,6.90
2017,03,30,01,45,6.90
2017,03,30,01,46,6.90
2017,03,30,01,47,6.90
2017,03,30,01,48,6.90
2017,03,30,01,49,6.80
2017,03,30,01,50,6.80
2017,03,30,01,51,6.80
2017,03,30,01,52,6.80
2017,03,30,01,53,6.80
2017,03,30,01,54,6.80
2017,03,30,01,55,6.80
2017,03,30,01,56,6.80
2017,03,30,01,57,6.80
2017,03,30,01,58,6.80
2017,03,30,01,59,6.80
2017,03,30,02,00,6.80
2017,03,30,02,01,6.80
2017,03,30,02,02,6.80
2017,03,30,02,03,6.80
2017,03,30,02,04,6.80
2017,03,30,02,05,6.80
2017,03,30,02,06,6.80
2017,03,30,02,07,6.80
2017,03,30,02,08,6.90
2017,03,30,02,09,6.90
2017,03,30,02,10,6.90
2017,03,30,02,11,6.90
2017,03,30,02,12,6.90
2017,03,30,02,13,7.00
2017,03,30,02,14,7.00
2017,03,30,02,15,7.00
2017,03,30,02,16,7.00
2017,03,30,02,17,7.00
2017,03,30,02,18,7.00
2017,03,30,02,19,7.00
2017,03,30,02,20,7.00
2017,03,30,02,21,7.00
2017,03,30,02,22,6.90
2017,03,30,02,23,6.90
2017,03,30,02,24,6.90
2017,03,30,02,25,6.90
2017,03,30,02,26,6.90
2017,03,30,02,27,6.90
2017,03,30,02,28,6.90
2017,03,30,02,29,6.90
2017,03,30,02,30,6.90
2017,03,30,02,31,6.90
2017,03,30,02,32,6.90
2017,03,30,02,33,6.90
2017,03,30,02,34,7.00
2017,03,30,02,35,7.00
2017,03,30,02,36,7.00
2017,03,30,02,37,7.00
2017,03,30,02,38,7.00
2017,03,30,02,39,7.00
2017,03,30,02,40,7.00
2017,03,30,02,41,7.00
2017,03,30,02,42,7.00
2017,03,30,02,43,7.00
2017,03,30,02,44,7.00
2017,03,30,02,45,7.00
2017,03,30,02,46,7.00
2017,03,30,02,47,7.00
2017,03,30,02,48,7.00
2017,03,30,02,49,7.00
2017,03,30,02,50,7.00
2017,03,30,02,51,7.00
2017,03,30,02,52,7.00
2017,03,30,02,53,7.00
2017,03,30,02,54,7.00
2017,03,30,02,55,7.00
2017,03,30,02,56,7.00
2017,03,30,02,57,7.00
2017,03,30,02,58,7.00
2017,03,30,02,59,6.90
2017,03,30,03,00,6.90
2017,03,30,03,01,6.90
2017,03,30,03,02,6.90
2017,03,30,03,03,6.90
2017,03,30,03,04,6.80
2017,03,30,03,05,6.80
2017,03,30,03,06,6.80
2017,03,30,03,07,6.80
2017,03,30,03,08,6.80
2017,03,30,03,09,6.80
2017,03,30,03,10,6.80
2017,03,30,03,11,6.70
2017,03,30,03,12,6.70
2017,03,30,03,13,6.70
2017,03,30,03,14,6.70
2017,03,30,03,15,6.70
2017,03,30,03,16,6.70
2017,03,30,03,17,6.70
2017,03,30,03,18,6.70
2017,03,30,03,19,6.70
2017,03,30,03,20,6.70
2017,03,30,03,21,6.70
2017,03,30,03,22,6.70
2017,03,30,03,23,6.70
2017,03,30,03,24,6.70
2017,03,30,03,25,6.70
2017,03,30,03,26,6.70
2017,03,30,03,27,6.70
2017,03,30,03,28,6.70
2017,03,30,03,29,6.70
2017,03,30,03,30,6.70
2017,03,30,03,31,6.70
2017,03,30,03,32,6.60
2017,03,30,03,33,6.60
2017,03,30,03,34,6.60
2017,03,30,03,35,6.60
2017,03,30,03,36,6.60
2017,03,30,03,37,6.60
2017,03,30,03,38,6.60
2017,03,30,03,39,6.60
2017,03,30,03,40,6.60
2017,03,30,03,41,6.60
2017,03,30,03,42,6.60
2017,03,30,03,43,6.70
2017,03,30,03,44,6.70
2017,03,30,03,45,6.70
2017,03,30,03,46,6.70
2017,03,30,03,47,6.70
2017,03,30,03,48,6.70
2017,03,30,03,49,6.70
2017,03,30,03,50,6.70
2017,03,30,03,51,6.70
2017,03,30,03,52,6.70
2017,03,30,03,53,6.70
2017,03,30,03,54,6.70
2017,03,30,03,55,6.70
2017,03,30,03,56,6.70
2017,03,30,03,57,6.70
2017,03,30,03,58,6.70
2017,03,30,03,59,6.60
2017,03,30,04,00,6.60
2017,03,30,04,01,6.60
2017,03,30,04,02,6.60
2017,03,30,04,03,6.60
2017,03,30,04,04,6.60
2017,03,30,04,05,6.60
2017,03,30,04,06,6.60
2017,03,30,04,07,6.60
2017,03,30,04,08,6.60
2017,03,30,04,09,6.60
2017,03,30,04,10,6.60
2017,03,30,04,11,6.60
2017,03,30,04,12,6.60
2017,03,30,04,13,6.60
2017,03,30,04,14,6.60
2017,03,30,04,15,6.60
2017,03,30,04,16,6.40
2017,03,30,04,17,6.40
2017,03,30,04,18,6.40
2017,03,30,04,19,6.40
2017,03,30,04,20,6.40
2017,03,30,04,21,6.40
2017,03,30,04,22,6.40
2017,03,30,04,23,6.40
2017,03,30,04,24,6.40
2017,03,30,04,25,6.40
2017,03,30,04,26,6.30
2017,03,30,04,27,6.30
2017,03,30,04,28,6.30
2017,03,30,04,29,6.30
2017,03,30,04,30,6.30
2017,03,30,04,31,6.30
2017,03,30,04,32,6.20
2017,03,30,04,33,6.20
2017,03,30,04,34,6.20
2017,03,30,04,35,6.20
2017,03,30,04,36,6.20
2017,03,30,04,37,6.20
2017,03,30,04,38,6.20
2017,03,30,04,39,6.20
2017,03,30,04,40,6.20
2017,03,30,04,41,6.20
2017,03,30,04,42,6.20
2017,03,30,04,43,6.20
2017,03,30,04,44,6.20
2017,03,30,04,45,6.20
2017,03,30,04,46,6.20
2017,03,30,04,47,6.20
2017,03,30,04,48,6.20
2017,03,30,04,49,6.10
2017,03,30,04,50,6.10
2017,03,30,04,51,6.10
2017,03,30,04,52,6.10
2017,03,30,04,53,6.00
2017,03,30,04,54,6.00
2017,03,30,04,55,6.00
2017,03,30,04,56,6.00
2017,03,30,04,57,6.00
2017,03,30,04,58,6.00
2017,03,30,04,59,6.00
2017,03,30,05,00,6.00
2017,03,30,05,01,6.00
2017,03,30,05,02,6.00
2017,03,30,05,03,6.00
2017,03,30,05,04,6.00
2017,03,30,05,05,6.00
2017,03,30,05,06,6.00
2017,03,30,05,07,6.00
2017,03,30,05,08,6.00
2017,03,30,05,09,6.00
2017,03,30,05,10,6.00
2017,03,30,05,11,6.00
2017,03,30,05,12,6.00
2017,03,30,05,13,6.00
2017,03,30,05,14,6.00
2017,03,30,05,15,6.00
2017,03,30,05,16,6.00
2017,03,30,05,17,6.00
2017,03,30,05,18,6.10
2017,03,30,05,19,6.10
2017,03,30,05,20,6.10
2017,03,30,05,21,6.20
2017,03,30,05,22,6.20
2017,03,30,05,23,6.20
2017,03,30,05,24,6.20
2017,03,30,05,25,6.20
2017,03,30,05,26,6.20
2017,03,30,05,27,6.30
2017,03,30,05,28,6.30
2017,03,30,05,29,6.30
2017,03,30,05,30,6.30
2017,03,30,05,31,6.30
2017,03,30,05,32,6.30
2017,03,30,05,33,6.40
2017,03,30,05,34,6.40
2017,03,30,05,35,6.40
2017,03,30,05,36,6.40
2017,03,30,05,37,6.40
2017,03,30,05,38,6.40
2017,03,30,05,39,6.30
2017,03,30,05,40,6.30
2017,03,30,05,41,6.30
2017,03,30,05,42,6.30
2017,03,30,05,43,6.30
2017,03,30,05,44,6.30
2017,03,30,05,45,6.30
2017,03,30,05,46,6.40
2017,03,30,05,47,6.40
2017,03,30,05,48,6.40
2017,03,30,05,49,6.40
2017,03,30,05,50,6.40
2017,03,30,05,51,6.40
2017,03,30,05,52,6.40
2017,03,30,05,53,6.30
2017,03,30,05,54,6.30
2017,03,30,05,55,6.30
2017,03,30,05,56,6.30
2017,03,30,05,57,6.30
2017,03,30,05,58,6.30
2017,03,30,05,59,6.20
2017,03,30,06,00,6.20
2017,03,30,06,01,6.20
2017,03,30,06,02,6.20
2017,03,30,06,03,6.20
2017,03,30,06,04,6.20
2017,03,30,06,05,6.20
2017,03,30,06,06,6.20
2017,03,30,06,07,6.20
2017,03,30,06,08,6.10
2017,03,30,06,09,6.10
2017,03,30,06,10,6.10
2017,03,30,06,11,6.00
2017,03,30,06,12,6.00
2017,03,30,06,13,5.90
2017,03,30,06,14,5.80
2017,03,30,06,15,5.70
2017,03,30,06,16,5.70
2017,03,30,06,17,5.70
2017,03,30,06,18,5.70
2017,03,30,06,19,5.60
2017,03,30,06,20,5.60
2017,03,30,06,21,5.60
2017,03,30,06,22,5.60
2017,03,30,06,23,5.60
2017,03,30,06,24,5.60
2017,03,30,06,25,5.50
2017,03,30,06,26,5.50
2017,03,30,06,27,5.50
2017,03,30,06,28,5.50
2017,03,30,06,29,5.50
2017,03,30,06,30,5.50
2017,03,30,06,31,5.50
2017,03,30,06,32,5.50
2017,03,30,06,33,5.50
2017,03,30,06,34,5.40
2017,03,30,06,35,5.40
2017,03,30,06,36,5.40
2017,03,30,06,37,5.40
2017,03,30,06,38,5.40
2017,03,30,06,39,5.30
2017,03,30,06,40,5.30
2017,03,30,06,41,5.30
2017,03,30,06,42,5.20
2017,03,30,06,43,5.20
2017,03,30,06,44,5.20
2017,03,30,06,45,5.20
2017,03,30,06,46,5.20
2017,03,30,06,47,5.20
2017,03,30,06,48,5.20
2017,03,30,06,49,5.20
2017,03,30,06,50,5.30
2017,03,30,06,51,5.20
2017,03,30,06,52,5.20
2017,03,30,06,53,5.20
2017,03,30,06,54,5.20
2017,03,30,06,55,5.20
2017,03,30,06,56,5.20
2017,03,30,06,57,5.20
2017,03,30,06,58,5.20
2017,03,30,06,59,5.20
2017,03,30,07,00,5.20
2017,03,30,07,01,5.20
2017,03,30,07,02,5.20
2017,03,30,07,03,5.20
2017,03,30,07,04,5.20
2017,03,30,07,05,5.20
2017,03,30,07,06,5.10
2017,03,30,07,07,5.10
2017,03,30,07,08,5.10
2017,03,30,07,09,5.10
2017,03,30,07,10,5.10
2017,03,30,07,11,5.10
2017,03,30,07,12,5.10
2017,03,30,07,13,5.10
2017,03,30,07,14,5.10
2017,03,30,07,15,5.10
2017,03,30,07,16,5.10
2017,03,30,07,17,5.10
2017,03,30,07,18,5.20
2017,03,30,07,19,5.20
2017,03,30,07,20,5.20
2017,03,30,07,21,5.20
2017,03,30,07,22,5.10
2017,03,30,07,23,5.10
2017,03,30,07,24,5.10
2017,03,30,07,25,5.10
2017,03,30,07,26,5.00
2017,03,30,07,27,4.90
2017,03,30,07,28,4.90
2017,03,30,07,29,4.90
2017,03,30,07,30,4.80
2017,03,30,07,31,4.70
2017,03,30,07,32,4.70
2017,03,30,07,33,4.70
2017,03,30,07,34,4.60
2017,03,30,07,35,4.60
2017,03,30,07,36,4.60
2017,03,30,07,37,4.60
2017,03,30,07,38,4.70
2017,03,30,07,39,4.70
2017,03,30,07,40,4.80
2017,03,30,07,41,4.80
2017,03,30,07,42,4.90
2017,03,30,07,43,4.90
2017,03,30,07,44,5.00
2017,03,30,07,45,5.10
2017,03,30,07,46,5.10
2017,03,30,07,47,5.20
2017,03,30,07,48,5.30
2017,03,30,07,49,5.30
2017,03,30,07,50,5.30
2017,03,30,07,51,5.40
2017,03,30,07,52,5.50
2017,03,30,07,53,5.50
2017,03,30,07,54,5.60
2017,03,30,07,55,5.70
2017,03,30,07,56,5.70
2017,03,30,07,57,5.80
2017,03,30,07,58,5.90
2017,03,30,07,59,6.00
2017,03,30,08,00,6.00
2017,03,30,08,01,6.10
2017,03,30,08,02,6.20
2017,03,30,08,03,6.20
2017,03,30,08,04,6.30
2017,03,30,08,05,6.40
2017,03,30,08,06,6.40
2017,03,30,08,07,6.40
2017,03,30,08,08,6.50
2017,03,30,08,09,6.60
2017,03,30,08,10,6.60
2017,03,30,08,11,6.60
2017,03,30,08,12,6.70
2017,03,30,08,13,6.70
2017,03,30,08,14,6.70
2017,03,30,08,15,6.80
2017,03,30,08,16,6.80
2017,03,30,08,17,6.80
2017,03,30,08,18,6.90
2017,03,30,08,19,6.90
2017,03,30,08,20,6.90
2017,03,30,08,21,7.00
2017,03,30,08,22,7.00
2017,03,30,08,23,7.00
2017,03,30,08,24,7.10
2017,03,30,08,25,7.10
2017,03,30,08,26,7.10
2017,03,30,08,27,7.20
2017,03,30,08,28,7.20
2017,03,30,08,29,7.20
2017,03,30,08,30,7.30
2017,03,30,08,31,7.30
2017,03,30,08,32,7.30
2017,03,30,08,33,7.30
2017,03,30,08,34,7.40
2017,03,30,08,35,7.40
2017,03,30,08,36,7.40
2017,03,30,08,37,7.50
2017,03,30,08,38,7.50
2017,03,30,08,39,7.60
2017,03,30,08,40,7.60
2017,03,30,08,41,7.60
2017,03,30,08,42,7.70
2017,03,30,08,43,7.70
2017,03,30,08,44,7.80
2017,03,30,08,45,7.80
2017,03,30,08,46,7.80
2017,03,30,08,47,7.80
2017,03,30,08,48,7.90
2017,03,30,08,49,7.90
2017,03,30,08,50,7.90
2017,03,30,08,51,7.90
2017,03,30,08,52,8.00
2017,03,30,08,53,8.00
2017,03,30,08,54,8.00
2017,03,30,08,55,8.00
2017,03,30,08,56,8.10
2017,03,30,08,57,8.10
2017,03,30,08,58,8.20
2017,03,30,08,59,8.20
2017,03,30,09,00,8.20
2017,03,30,09,01,8.30
2017,03,30,09,02,8.40
2017,03,30,09,03,8.50
2017,03,30,09,04,8.50
2017,03,30,09,05,8.60
2017,03,30,09,06,8.70
2017,03,30,09,07,8.70
2017,03,30,09,08,8.80
2017,03,30,09,09,8.80
2017,03,30,09,10,8.90
2017,03,30,09,11,8.90
2017,03,30,09,12,8.90
2017,03,30,09,13,9.00
2017,03,30,09,14,9.00
2017,03,30,09,15,9.10
2017,03,30,09,16,9.10
2017,03,30,09,17,9.20
2017,03,30,09,18,9.20
2017,03,30,09,19,9.20
2017,03,30,09,20,9.20
2017,03,30,09,21,9.20
2017,03,30,09,22,9.30
2017,03,30,09,23,9.30
2017,03,30,09,24,9.30
2017,03,30,09,25,9.30
2017,03,30,09,26,9.40
2017,03,30,09,27,9.40
2017,03,30,09,28,9.40
2017,03,30,09,29,9.50
2017,03,30,09,30,9.50
2017,03,30,09,31,9.50
2017,03,30,09,32,9.50
2017,03,30,09,33,9.60
2017,03,30,09,34,9.60
2017,03,30,09,35,9.70
2017,03,30,09,36,9.70
2017,03,30,09,37,9.70
2017,03,30,09,38,9.70
2017,03,30,09,39,9.70
2017,03,30,09,40,9.80
2017,03,30,09,41,9.80
2017,03,30,09,42,9.90
2017,03,30,09,43,9.90
2017,03,30,09,44,10.00
2017,03,30,09,45,10.10
2017,03,30,09,46,10.10
2017,03,30,09,47,10.10
2017,03,30,09,48,10.10
2017,03,30,09,49,10.00
2017,03,30,09,50,9.90
2017,03,30,09,51,9.90
2017,03,30,09,52,9.90
2017,03,30,09,53,9.90
2017,03,30,09,54,9.90
2017,03,30,09,55,9.90
2017,03,30,09,56,10.00
2017,03,30,09,57,10.10
2017,03,30,09,58,10.10
2017,03,30,09,59,10.10
2017,03,30,10,00,10.10
2017,03,30,10,01,10.10
2017,03,30,10,02,10.10
2017,03,30,10,03,10.10
2017,03,30,10,04,10.20
2017,03,30,10,05,10.20
2017,03,30,10,06,10.20
2017,03,30,10,07,10.20
2017,03,30,10,08,10.30
2017,03,30,10,09,10.30
2017,03,30,10,10,10.30
2017,03,30,10,11,10.30
2017,03,30,10,12,10.40
2017,03,30,10,13,10.40
2017,03,30,10,14,10.40
2017,03,30,10,15,10.40
2017,03,30,10,16,10.30
2017,03,30,10,17,10.30
2017,03,30,10,18,10.30
2017,03,30,10,19,10.30
2017,03,30,10,20,10.20
2017,03,30,10,21,10.20
2017,03,30,10,22,10.10
2017,03,30,10,23,10.10
2017,03,30,10,24,10.10
2017,03,30,10,25,10.00
2017,03,30,10,26,9.90
2017,03,30,10,27,9.90
2017,03,30,10,28,9.90
2017,03,30,10,29,10.00
2017,03,30,10,30,10.10
2017,03,30,10,31,10.10
2017,03,30,10,32,10.10
2017,03,30,10,33,10.10
2017,03,30,10,34,10.10
2017,03,30,10,35,10.20
2017,03,30,10,36,10.20
2017,03,30,10,37,10.10
2017,03,30,10,38,10.10
2017,03,30,10,39,10.10
2017,03,30,10,40,10.10
2017,03,30,10,41,10.10
2017,03,30,10,42,10.10
2017,03,30,10,43,10.20
2017,03,30,10,44,10.20
2017,03,30,10,45,10.30
2017,03,30,10,46,10.30
2017,03,30,10,47,10.20
2017,03,30,10,48,10.20
2017,03,30,10,49,10.20
2017,03,30,10,50,10.10
2017,03,30,10,51,10.10
2017,03,30,10,52,10.20
2017,03,30,10,53,10.30
2017,03,30,10,54,10.40
2017,03,30,10,55,10.50
2017,03,30,10,56,10.60
2017,03,30,10,57,10.50
2017,03,30,10,58,10.30
2017,03,30,10,59,10.10
2017,03,30,11,00,10.00
2017,03,30,11,01,9.90
2017,03,30,11,02,9.90
2017,03,30,11,03,9.90
2017,03,30,11,04,9.90
2017,03,30,11,05,9.90
2017,03,30,11,06,9.90
2017,03,30,11,07,9.90
2017,03,30,11,08,9.90
2017,03,30,11,09,9.90
2017,03,30,11,10,9.90
2017,03,30,11,11,9.90
2017,03,30,11,12,9.90
2017,03,30,11,13,10.00
2017,03,30,11,14,10.10
2017,03,30,11,15,10.10
2017,03,30,11,16,10.20
2017,03,30,11,17,10.30
2017,03,30,11,18,10.30
2017,03,30,11,19,10.30
2017,03,30,11,20,10.40
2017,03,30,11,21,10.50
2017,03,30,11,22,10.60
2017,03,30,11,23,10.60
2017,03,30,11,24,10.60
2017,03,30,11,25,10.60
2017,03,30,11,26,10.70
2017,03,30,11,27,10.60
2017,03,30,11,28,10.60
2017,03,30,11,29,10.70
2017,03,30,11,30,10.90
2017,03,30,11,31,11.00
2017,03,30,11,32,11.30
2017,03,30,11,33,11.50
2017,03,30,11,34,11.70
2017,03,30,11,35,11.80
2017,03,30,11,36,11.70
2017,03,30,11,37,11.60
2017,03,30,11,38,11.50
2017,03,30,11,39,11.30
2017,03,30,11,40,11.20
2017,03,30,11,41,11.10
2017,03,30,11,42,11.10
2017,03,30,11,43,11.10
2017,03,30,11,44,11.00
2017,03,30,11,45,10.90
2017,03,30,11,46,10.90
2017,03,30,11,47,10.90
2017,03,30,11,48,11.00
2017,03,30,11,49,11.10
2017,03,30,11,50,11.20
2017,03,30,11,51,11.40
2017,03,30,11,52,11.50
2017,03,30,11,53,11.80
2017,03,30,11,54,11.90
2017,03,30,11,55,12.00
2017,03,30,11,56,12.10
2017,03,30,11,57,12.20
2017,03,30,11,58,12.20
2017,03,30,11,59,12.30
2017,03,30,12,00,12.40
2017,03,30,12,01,12.50
2017,03,30,12,02,12.50
2017,03,30,12,03,12.50
2017,03,30,12,04,12.50
2017,03,30,12,05,12.50
2017,03,30,12,06,12.50
2017,03,30,12,07,12.40
2017,03,30,12,08,12.30
2017,03,30,12,09,12.30
2017,03,30,12,10,12.30
2017,03,30,12,11,12.40
2017,03,30,12,12,12.40
2017,03,30,12,13,12.50
2017,03,30,12,14,12.50
2017,03,30,12,15,12.60
2017,03,30,12,16,12.60
2017,03,30,12,17,12.70
2017,03,30,12,18,12.80
2017,03,30,12,19,12.80
2017,03,30,12,20,12.80
2017,03,30,12,21,12.90
2017,03,30,12,22,12.90
2017,03,30,12,23,12.90
2017,03,30,12,24,12.90
2017,03,30,12,25,12.90
2017,03,30,12,26,12.80
2017,03,30,12,27,12.80
2017,03,30,12,28,12.70
2017,03,30,12,29,12.70
2017,03,30,12,30,12.70
2017,03,30,12,31,12.60
2017,03,30,12,32,12.60
2017,03,30,12,33,12.70
2017,03,30,12,34,12.70
2017,03,30,12,35,12.60
2017,03,30,12,36,12.60
2017,03,30,12,37,12.60
2017,03,30,12,38,12.70
2017,03,30,12,39,12.70
2017,03,30,12,40,12.60
2017,03,30,12,41,12.70
2017,03,30,12,42,12.80
2017,03,30,12,43,12.70
2017,03,30,12,44,12.60
2017,03,30,12,45,12.60
2017,03,30,12,46,12.60
2017,03,30,12,47,12.70
2017,03,30,12,48,12.70
2017,03,30,12,49,12.80
2017,03,30,12,50,12.80
2017,03,30,12,51,12.80
2017,03,30,12,52,12.80
2017,03,30,12,53,12.70
2017,03,30,12,54,12.60
2017,03,30,12,55,12.60
2017,03,30,12,56,12.60
2017,03,30,12,57,12.60
2017,03,30,12,58,12.60
2017,03,30,12,59,12.60
2017,03,30,13,00,12.60
2017,03,30,13,01,12.60
2017,03,30,13,02,12.60
2017,03,30,13,03,12.60
2017,03,30,13,04,12.70
2017,03,30,13,05,12.60
2017,03,30,13,06,12.60
2017,03,30,13,07,12.50
2017,03,30,13,08,12.50
2017,03,30,13,09,12.40
2017,03,30,13,10,12.40
2017,03,30,13,11,12.40
2017,03,30,13,12,12.40
2017,03,30,13,13,12.40
2017,03,30,13,14,12.40
2017,03,30,13,15,12.40
2017,03,30,13,16,12.30
2017,03,30,13,17,12.30
2017,03,30,13,18,12.30
2017,03,30,13,19,12.30
2017,03,30,13,20,12.30
2017,03,30,13,21,12.30
2017,03,30,13,22,12.40
2017,03,30,13,23,12.40
2017,03,30,13,24,12.50
2017,03,30,13,25,12.50
2017,03,30,13,26,12.60
2017,03,30,13,27,12.60
2017,03,30,13,28,12.70
2017,03,30,13,29,12.80
2017,03,30,13,30,12.80
2017,03,30,13,31,12.70
2017,03,30,13,32,12.70
2017,03,30,13,33,12.70
2017,03,30,13,34,12.70
2017,03,30,13,35,12.70
2017,03,30,13,36,12.70
2017,03,30,13,37,12.60
2017,03,30,13,38,12.50
2017,03,30,13,39,12.40
2017,03,30,13,40,12.30
2017,03,30,13,41,12.30
2017,03,30,13,42,12.30
2017,03,30,13,43,12.20
2017,03,30,13,44,12.10
2017,03,30,13,45,12.10
2017,03,30,13,46,12.20
2017,03,30,13,47,12.30
2017,03,30,13,48,12.20
2017,03,30,13,49,12.20
2017,03,30,13,50,12.20
2017,03,30,13,51,12.20
2017,03,30,13,52,12.20
2017,03,30,13,53,12.10
2017,03,30,13,54,12.10
2017,03,30,13,55,12.10
2017,03,30,13,56,12.00
2017,03,30,13,57,12.00
2017,03,30,13,58,12.00
2017,03,30,13,59,11.90
2017,03,30,14,00,11.80
2017,03,30,14,01,11.80
2017,03,30,14,02,11.80
2017,03,30,14,03,11.80
2017,03,30,14,04,11.80
2017,03,30,14,05,11.80
2017,03,30,14,06,11.70
2017,03,30,14,07,11.80
2017,03,30,14,08,11.80
2017,03,30,14,09,11.80
2017,03,30,14,10,11.80
2017,03,30,14,11,11.80
2017,03,30,14,12,11.80
2017,03,30,14,13,11.80
2017,03,30,14,14,11.80
2017,03,30,14,15,11.90
2017,03,30,14,16,12.10
2017,03,30,14,17,12.10
2017,03,30,14,18,12.30
2017,03,30,14,19,12.50
2017,03,30,14,20,12.60
2017,03,30,14,21,12.70
2017,03,30,14,22,12.80
2017,03,30,14,23,12.80
2017,03,30,14,24,12.80
2017,03,30,14,25,12.80
2017,03,30,14,26,12.80
2017,03,30,14,27,12.90
2017,03,30,14,28,12.90
2017,03,30,14,29,12.80
2017,03,30,14,30,12.90
2017,03,30,14,31,13.00
2017,03,30,14,32,12.90
2017,03,30,14,33,12.80
2017,03,30,14,34,12.90
2017,03,30,14,35,13.10
2017,03,30,14,36,13.20
2017,03,30,14,37,13.40
2017,03,30,14,38,13.50
2017,03,30,14,39,13.70
2017,03,30,14,40,13.80
2017,03,30,14,41,13.80
2017,03,30,14,42,13.80
2017,03,30,14,43,13.80
2017,03,30,14,44,13.90
2017,03,30,14,45,14.00
2017,03,30,14,46,14.10
2017,03,30,14,47,14.20
2017,03,30,14,48,14.30
2017,03,30,14,49,14.50
2017,03,30,14,50,14.50
2017,03,30,14,51,14.40
2017,03,30,14,52,14.40
2017,03,30,14,53,14.40
2017,03,30,14,54,14.30
2017,03,30,14,55,14.20
2017,03,30,14,56,14.20
2017,03,30,14,57,14.20
2017,03,30,14,58,14.20
2017,03,30,14,59,14.00
2017,03,30,15,00,13.90
2017,03,30,15,01,13.90
2017,03,30,15,02,13.80
2017,03,30,15,03,13.70
2017,03,30,15,04,13.60
2017,03,30,15,05,13.60
2017,03,30,15,06,13.50
2017,03,30,15,07,13.40
2017,03,30,15,08,13.40
2017,03,30,15,09,13.30
2017,03,30,15,10,13.30
2017,03,30,15,11,13.30
2017,03,30,15,12,13.30
2017,03,30,15,13,13.50
2017,03,30,15,14,13.60
2017,03,30,15,15,13.70
2017,03,30,15,16,13.70
2017,03,30,15,17,13.70
2017,03,30,15,18,13.80
2017,03,30,15,19,13.90
2017,03,30,15,20,14.00
2017,03,30,15,21,14.10
2017,03,30,15,22,14.30
2017,03,30,15,23,14.30
2017,03,30,15,24,14.30
2017,03,30,15,25,14.30
2017,03,30,15,26,14.40
2017,03,30,15,27,14.50
2017,03,30,15,28,14.50
2017,03,30,15,29,14.50
2017,03,30,15,30,14.50
2017,03,30,15,31,14.40
2017,03,30,15,32,14.20
2017,03,30,15,33,14.20
2017,03,30,15,34,14.20
2017,03,30,15,35,14.20
2017,03,30,15,36,14.20
2017,03,30,15,37,14.20
2017,03,30,15,38,14.20
2017,03,30,15,39,14.10
2017,03,30,15,40,14.10
2017,03,30,15,41,14.10
2017,03,30,15,42,14.20
2017,03,30,15,43,14.30
2017,03,30,15,44,14.40
2017,03,30,15,45,14.50
2017,03,30,15,46,14.50
2017,03,30,15,47,14.40
2017,03,30,15,48,14.40
2017,03,30,15,49,14.40
2017,03,30,15,50,14.40
2017,03,30,15,51,14.30
2017,03,30,15,52,14.30
2017,03,30,15,53,14.20
2017,03,30,15,54,14.20
2017,03,30,15,55,14.30
2017,03,30,15,56,14.30
2017,03,30,15,57,14.20
2017,03,30,15,58,14.20
2017,03,30,15,59,14.30
2017,03,30,16,00,14.30
2017,03,30,16,01,14.30
2017,03,30,16,02,14.40
2017,03,30,16,03,14.50
2017,03,30,16,04,14.60
2017,03,30,16,05,14.70
2017,03,30,16,06,14.80
2017,03,30,16,07,14.80
2017,03,30,16,08,14.80
2017,03,30,16,09,14.80
2017,03,30,16,10,14.80
2017,03,30,16,11,14.80
2017,03,30,16,12,14.90
2017,03,30,16,13,14.90
2017,03,30,16,14,14.80
2017,03,30,16,15,14.80
2017,03,30,16,16,14.80
2017,03,30,16,17,14.80
2017,03,30,16,18,14.80
2017,03,30,16,19,14.80
2017,03,30,16,20,14.70
2017,03,30,16,21,14.60
2017,03,30,16,22,14.50
2017,03,30,16,23,14.50
2017,03,30,16,24,14.50
2017,03,30,16,25,14.50
2017,03,30,16,26,14.60
2017,03,30,16,27,14.50
2017,03,30,16,28,14.50
2017,03,30,16,29,14.40
2017,03,30,16,30,14.40
2017,03,30,16,31,14.30
2017,03,30,16,32,14.30
2017,03,30,16,33,14.30
2017,03,30,16,34,14.30
2017,03,30,16,35,14.20
2017,03,30,16,36,14.20
2017,03,30,16,37,14.20
2017,03,30,16,38,14.40
2017,03,30,16,39,14.50
2017,03,30,16,40,14.70
2017,03,30,16,41,14.80
2017,03,30,16,42,14.90
2017,03,30,16,43,14.90
2017,03,30,16,44,15.00
2017,03,30,16,45,15.00
2017,03,30,16,46,14.90
2017,03,30,16,47,15.00
2017,03,30,16,48,15.00
2017,03,30,16,49,14.90
2017,03,30,16,50,14.80
2017,03,30,16,51,14.70
2017,03,30,16,52,14.50
2017,03,30,16,53,14.40
2017,03,30,16,54,14.30
2017,03,30,16,55,14.20
2017,03,30,16,56,14.20
2017,03,30,16,57,14.10
2017,03,30,16,58,14.10
2017,03,30,16,59,14.10
2017,03,30,17,00,14.10
2017,03,30,17,01,14.10
2017,03,30,17,02,14.20
2017,03,30,17,03,14.30
2017,03,30,17,04,14.40
2017,03,30,17,05,14.40
2017,03,30,17,06,14.50
2017,03,30,17,07,14.50
2017,03,30,17,08,14.50
2017,03,30,17,09,14.30
2017,03,30,17,10,14.20
2017,03,30,17,11,14.20
2017,03,30,17,12,14.20
2017,03,30,17,13,14.10
2017,03,30,17,14,14.10
2017,03,30,17,15,14.00
2017,03,30,17,16,13.90
2017,03,30,17,17,13.90
2017,03,30,17,18,13.90
2017,03,30,17,19,13.90
2017,03,30,17,20,13.90
2017,03,30,17,21,14.00
2017,03,30,17,22,14.10
2017,03,30,17,23,14.30
2017,03,30,17,24,14.40
2017,03,30,17,25,14.40
2017,03,30,17,26,14.40
2017,03,30,17,27,14.30
2017,03,30,17,28,14.20
2017,03,30,17,29,14.20
2017,03,30,17,30,14.20
2017,03,30,17,31,14.30
2017,03,30,17,32,14.30
2017,03,30,17,33,14.30
2017,03,30,17,34,14.30
2017,03,30,17,35,14.40
2017,03,30,17,36,14.40
2017,03,30,17,37,14.40
2017,03,30,17,38,14.40
2017,03,30,17,39,14.40
2017,03,30,17,40,14.50
2017,03,30,17,41,14.50
2017,03,30,17,42,14.60
2017,03,30,17,43,14.50
2017,03,30,17,44,14.50
2017,03,30,17,45,14.40